Note: The geometry has been computed in planetocentric coordinates for the time of closest approach to the planet ,,,,,,,,,,,,,
Time of Closest Approach ,URN,Start Time,Stop Time,Solar Longitude (deg),Solar Latitude (deg),Spacecraft Longitude (deg),Spacecraft Latitude (deg),Altitude (km),Phase Angle (deg),Orbit No.,Ls,Martian Year,Product Size (MB)
2014-10-07T03:13:20Z,urn:nasa:pds:maven_acc:profile:pro_acc_p00049,2014-10-07T03:08:20.00Z,2014-10-07T03:18:20.00Z,-178.58102573,-12.00287973,-120.39447725,35.00613877,180.08437518,72.61114479,49,209.53,32,0.047
2014-10-07T07:50:24Z,urn:nasa:pds:maven_acc:profile:pro_acc_p00050,2014-10-07T07:45:24.00Z,2014-10-07T07:55:24.00Z,114.01555177,-12.04667761,171.90807759,35.11171175,181.02373589,72.48558254,50,209.53,32,0.047
2014-10-07T12:27:28Z,urn:nasa:pds:maven_acc:profile:pro_acc_p00051,2014-10-07T12:22:28.00Z,2014-10-07T12:32:28.00Z,46.61219236,-12.09044237,104.20144554,35.28656342,180.5725345,72.38968703,51,209.71,32,0.047
2014-10-07T21:41:34Z,urn:nasa:pds:maven_acc:profile:pro_acc_p00053,2014-10-07T21:36:34.00Z,2014-10-07T21:46:34.00Z,-88.18622769,-12.17786639,-31.17069168,35.54271973,181.38038075,72.17906296,53,209.95,32,0.047
2014-10-08T02:18:39Z,urn:nasa:pds:maven_acc:profile:pro_acc_p00054,2014-10-08T02:13:39.00Z,2014-10-08T02:23:39.00Z,-155.59345187,-12.22153307,-98.85396467,35.65482492,180.81315377,72.07533645,54,209.95,32,0.047
2014-10-08T16:09:45Z,urn:nasa:pds:maven_acc:profile:pro_acc_p00057,2014-10-08T16:04:45.00Z,2014-10-08T16:14:45.00Z,2.22174762,-12.35230442,58.0928845,36.06887345,180.29602146,71.78563261,57,210.44,32,0.047
2014-10-09T15:15:00Z,urn:nasa:pds:maven_acc:profile:pro_acc_p00062,2014-10-09T15:09:60.00Z,2014-10-09T15:19:60.00Z,25.22808217,-12.56957232,79.64296174,36.70099536,180.94124358,71.29815055,62,211.05,32,0.047
2014-10-10T14:20:17Z,urn:nasa:pds:maven_acc:profile:pro_acc_p00067,2014-10-10T14:15:17.00Z,2014-10-10T14:25:17.00Z,48.22791034,-12.78594842,101.15721945,37.38707032,181.92752028,70.86214091,67,211.54,32,0.047
2014-10-10T23:34:22Z,urn:nasa:pds:maven_acc:profile:pro_acc_p00069,2014-10-10T23:29:22.00Z,2014-10-10T23:39:22.00Z,-86.56440923,-12.87223648,-34.23818603,37.68396773,182.78067525,70.70723332,69,211.78,32,0.047
2014-10-11T04:11:26Z,urn:nasa:pds:maven_acc:profile:pro_acc_p00070,2014-10-11T04:06:26.00Z,2014-10-11T04:16:26.00Z,-153.96655382,-12.91532825,-101.93722161,37.83510728,182.16836289,70.63715668,70,211.97,32,0.047
2014-10-29T15:07:44Z,urn:nasa:pds:maven_acc:profile:pro_acc_p00166,2014-10-29T15:02:44.00Z,2014-10-29T15:12:44.00Z,-138.88606974,-16.83776539,-116.91448128,50.46242316,172.52596784,70.51264863,166,223.38,32,0.047
2014-10-29T19:44:06Z,urn:nasa:pds:maven_acc:profile:pro_acc_p00167,2014-10-29T19:39:06.00Z,2014-10-29T19:49:06.00Z,153.88859329,-16.87597378,175.54219594,50.55995056,173.41209945,70.56449554,167,223.38,32,0.047
2014-10-30T00:20:30Z,urn:nasa:pds:maven_acc:profile:pro_acc_p00168,2014-10-30T00:15:30.00Z,2014-10-30T00:25:30.00Z,86.65521666,-16.91412554,107.94536498,50.71276377,173.18384124,70.65852762,168,223.5,32,0.047
2014-10-30T04:56:51Z,urn:nasa:pds:maven_acc:profile:pro_acc_p00169,2014-10-30T04:51:51.00Z,2014-10-30T05:01:51.00Z,19.4340709,-16.95220894,40.40967424,50.84081006,172.51033064,70.7426846,169,223.69,32,0.047
2014-10-30T09:33:14Z,urn:nasa:pds:maven_acc:profile:pro_acc_p00170,2014-10-30T09:28:14.00Z,2014-10-30T09:38:14.00Z,-47.79511451,-16.9902352,-27.15003647,50.93509441,173.75549563,70.79333468,170,223.88,32,0.047
2014-10-30T14:09:38Z,urn:nasa:pds:maven_acc:profile:pro_acc_p00171,2014-10-30T14:04:38.00Z,2014-10-30T14:14:38.00Z,-115.02828547,-17.02820177,-94.72473988,51.07997992,173.31960208,70.89033476,171,223.88,32,0.047
2014-10-30T18:45:57Z,urn:nasa:pds:maven_acc:profile:pro_acc_p00172,2014-10-30T18:40:57.00Z,2014-10-30T18:50:57.00Z,177.7588826,-17.06609468,-162.26056427,51.21471079,173.21448475,70.98358722,172,224,32,0.047
2014-10-30T23:22:21Z,urn:nasa:pds:maven_acc:profile:pro_acc_p00173,2014-10-30T23:17:21.00Z,2014-10-30T23:27:21.00Z,110.52584875,-17.10393655,130.11438449,51.34770846,173.55775716,71.06229597,173,224.12,32,0.047
2014-10-31T03:58:43Z,urn:nasa:pds:maven_acc:profile:pro_acc_p00174,2014-10-31T03:53:43.00Z,2014-10-31T04:03:43.00Z,43.30099162,-17.14171113,62.59383608,51.47031319,172.76047053,71.15320253,174,224.31,32,0.047
2014-10-31T08:35:03Z,urn:nasa:pds:maven_acc:profile:pro_acc_p00175,2014-10-31T08:30:03.00Z,2014-10-31T08:40:03.00Z,-23.91568882,-17.17941819,-5.00232787,51.61548047,173.70935352,71.24974751,175,224.31,32,0.047
2014-10-31T13:11:27Z,urn:nasa:pds:maven_acc:profile:pro_acc_p00176,2014-10-31T13:06:27.00Z,2014-10-31T13:16:27.00Z,-91.14851705,-17.21707113,-72.59103636,51.76574477,173.92704156,71.35784361,176,224.5,32,0.047
2014-10-31T17:47:47Z,urn:nasa:pds:maven_acc:profile:pro_acc_p00177,2014-10-31T17:42:47.00Z,2014-10-31T17:52:47.00Z,-158.36506046,-17.25465152,-140.11144245,51.87646559,173.18707179,71.44040566,177,224.62,32,0.047
2014-10-31T22:24:10Z,urn:nasa:pds:maven_acc:profile:pro_acc_p00178,2014-10-31T22:19:10.00Z,2014-10-31T22:29:10.00Z,134.40630241,-17.29217499,152.3146293,51.95312486,174.28784137,71.48412296,178,224.75,32,0.047
2014-11-01T03:00:31Z,urn:nasa:pds:maven_acc:profile:pro_acc_p00179,2014-11-01T02:55:31.00Z,2014-11-01T03:05:31.00Z,67.18584192,-17.32962997,84.71727561,52.15938346,173.7496626,71.64661223,179,224.93,32,0.047
2014-11-07T20:11:19Z,urn:nasa:pds:maven_acc:profile:pro_acc_p00214,2014-11-07T20:06:19.00Z,2014-11-07T20:16:19.00Z,-125.13459162,-18.59813718,-120.10214614,56.58194809,176.03597648,75.81449834,214,229,32,0.047
2014-11-08T00:47:34Z,urn:nasa:pds:maven_acc:profile:pro_acc_p00215,2014-11-08T00:42:34.00Z,2014-11-08T00:52:34.00Z,167.67172095,-18.63311133,172.37360773,56.66264679,176.88499407,75.91486759,215,229.13,32,0.047
2014-11-08T05:23:51Z,urn:nasa:pds:maven_acc:profile:pro_acc_p00216,2014-11-08T05:18:51.00Z,2014-11-08T05:28:51.00Z,100.46999301,-18.66801658,104.75910975,56.81279278,176.69712407,76.08189846,216,229.31,32,0.047
2014-11-08T10:00:05Z,urn:nasa:pds:maven_acc:profile:pro_acc_p00217,2014-11-08T09:55:05.00Z,2014-11-08T10:05:05.00Z,33.28049405,-18.70284217,37.22015014,56.94138421,175.95693391,76.23144383,217,229.5,32,0.047
2014-11-08T14:36:20Z,urn:nasa:pds:maven_acc:profile:pro_acc_p00218,2014-11-08T14:31:20.00Z,2014-11-08T14:41:20.00Z,-33.91299162,-18.73759625,-30.38692988,57.07762393,177.24071979,76.38765107,218,229.5,32,0.047
2014-11-08T19:12:37Z,urn:nasa:pds:maven_acc:profile:pro_acc_p00219,2014-11-08T19:07:37.00Z,2014-11-08T19:17:37.00Z,-101.11451794,-18.77228067,-97.97270998,57.22056694,176.79040671,76.55296373,219,229.63,32,0.047
2014-11-08T23:48:50Z,urn:nasa:pds:maven_acc:profile:pro_acc_p00220,2014-11-08T23:43:50.00Z,2014-11-08T23:53:50.00Z,-168.29976158,-18.80688263,-165.45382852,57.29422977,176.60730265,76.65302363,220,229.75,32,0.047
2014-11-09T04:25:07Z,urn:nasa:pds:maven_acc:profile:pro_acc_p00221,2014-11-09T04:20:07.00Z,2014-11-09T04:30:07.00Z,124.49884624,-18.8414186,126.90806113,57.41475039,177.06541986,76.79727091,221,229.94,32,0.047
2014-11-09T09:01:22Z,urn:nasa:pds:maven_acc:profile:pro_acc_p00222,2014-11-09T08:56:22.00Z,2014-11-09T09:06:22.00Z,57.30562881,-18.87587581,59.38100684,57.54616951,176.28603099,76.95594949,222,229.94,32,0.047
2014-11-09T13:37:35Z,urn:nasa:pds:maven_acc:profile:pro_acc_p00223,2014-11-09T13:32:35.00Z,2014-11-09T13:42:35.00Z,-9.87941393,-18.91025404,-8.2240164,57.67410056,177.18062935,77.11082041,223,230.13,32,0.047
2014-11-09T18:13:52Z,urn:nasa:pds:maven_acc:profile:pro_acc_p00224,2014-11-09T18:08:52.00Z,2014-11-09T18:18:52.00Z,-77.08060536,-18.94456549,-75.82891154,57.82294869,177.42160954,77.28823955,224,230.25,32,0.047
2014-11-09T22:50:05Z,urn:nasa:pds:maven_acc:profile:pro_acc_p00225,2014-11-09T22:45:05.00Z,2014-11-09T22:55:05.00Z,-144.26551448,-18.97879335,-143.36574396,57.94728354,176.59136297,77.44308468,225,230.38,32,0.047
2014-11-10T03:26:21Z,urn:nasa:pds:maven_acc:profile:pro_acc_p00226,2014-11-10T03:21:21.00Z,2014-11-10T03:31:21.00Z,148.5374815,-19.01295183,149.06573535,58.0137373,177.73283706,77.54130918,226,230.57,32,0.047
2014-11-10T08:02:36Z,urn:nasa:pds:maven_acc:profile:pro_acc_p00227,2014-11-10T07:57:36.00Z,2014-11-10T08:07:36.00Z,81.34459801,-19.04703245,81.48233015,58.17521622,177.20718491,77.7351854,227,230.57,32,0.047
2014-11-10T12:38:49Z,urn:nasa:pds:maven_acc:profile:pro_acc_p00228,2014-11-10T12:33:49.00Z,2014-11-10T12:43:49.00Z,14.15988885,-19.08103291,13.94234745,58.25965209,177.11942914,77.85361556,228,230.76,32,0.047
2014-11-10T17:15:05Z,urn:nasa:pds:maven_acc:profile:pro_acc_p00229,2014-11-10T17:10:05.00Z,2014-11-10T17:20:05.00Z,-53.03691538,-19.11496322,-53.65811693,58.39264426,178.05054115,78.02162422,229,230.88,32,0.047
2014-11-11T02:27:32Z,urn:nasa:pds:maven_acc:profile:pro_acc_p00231,2014-11-11T02:22:32.00Z,2014-11-11T02:32:32.00Z,172.58994475,-19.18258377,171.19279102,58.65438331,177.91406326,78.35696952,231,231.01,32,0.047
2014-11-11T07:03:47Z,urn:nasa:pds:maven_acc:profile:pro_acc_p00232,2014-11-11T06:58:47.00Z,2014-11-11T07:08:47.00Z,105.39739355,-19.21628168,103.55868022,58.80743699,177.74657201,78.54930947,232,231.2,32,0.047
2014-11-11T11:40:00Z,urn:nasa:pds:maven_acc:profile:pro_acc_p00233,2014-11-11T11:34:60.00Z,2014-11-11T11:44:60.00Z,38.21301628,-19.24989827,36.07222744,58.88313117,176.96743236,78.66364024,233,231.39,32,0.047
2014-11-11T16:16:13Z,urn:nasa:pds:maven_acc:profile:pro_acc_p00234,2014-11-11T16:11:13.00Z,2014-11-11T16:21:13.00Z,-28.97129483,-19.28343737,-31.55053263,59.01833709,178.25750759,78.84070338,234,231.51,32,0.047
2014-11-11T20:52:28Z,urn:nasa:pds:maven_acc:profile:pro_acc_p00235,2014-11-11T20:47:28.00Z,2014-11-11T20:57:28.00Z,-96.16364753,-19.31690275,-99.15404324,59.16670124,177.80929173,79.03160666,235,231.51,32,0.047
2014-11-12T01:28:38Z,urn:nasa:pds:maven_acc:profile:pro_acc_p00236,2014-11-12T01:23:38.00Z,2014-11-12T01:33:38.00Z,-163.33566504,-19.35028007,-166.70752306,59.3026689,177.61624789,79.2105841,236,231.64,32,0.047
2014-11-12T06:04:54Z,urn:nasa:pds:maven_acc:profile:pro_acc_p00237,2014-11-12T05:59:54.00Z,2014-11-12T06:09:54.00Z,129.46806039,-19.38359124,125.70062936,59.36883634,178.11098102,79.32179842,237,231.83,32,0.047
2014-11-12T10:41:07Z,urn:nasa:pds:maven_acc:profile:pro_acc_p00238,2014-11-12T10:36:07.00Z,2014-11-12T10:46:07.00Z,62.28401316,-19.4168179,58.15173021,59.51287862,177.34393314,79.51035136,238,232.01,32,0.047
2014-11-12T15:17:18Z,urn:nasa:pds:maven_acc:profile:pro_acc_p00239,2014-11-12T15:12:18.00Z,2014-11-12T15:22:18.00Z,-4.89186065,-19.44996186,-9.47688348,59.64570861,178.21271094,79.69202169,239,232.14,32,0.047
2014-11-12T19:53:34Z,urn:nasa:pds:maven_acc:profile:pro_acc_p00240,2014-11-12T19:48:34.00Z,2014-11-12T19:58:34.00Z,-72.08793786,-19.48303685,-77.04758672,59.75187506,178.456269,79.84549743,240,232.14,32,0.047
2014-11-13T00:29:45Z,urn:nasa:pds:maven_acc:profile:pro_acc_p00241,2014-11-13T00:24:45.00Z,2014-11-13T00:34:45.00Z,-139.26368037,-19.51602267,-144.61979171,59.89684985,177.59667391,80.03931926,241,232.27,32,0.047
2014-11-13T05:05:59Z,urn:nasa:pds:maven_acc:profile:pro_acc_p00242,2014-11-13T05:00:59.00Z,2014-11-13T05:10:59.00Z,153.5484812,-19.54893503,147.78698033,59.97744081,178.75749399,80.17089313,242,232.45,32,0.047
2014-11-13T09:42:13Z,urn:nasa:pds:maven_acc:profile:pro_acc_p00243,2014-11-13T09:37:13.00Z,2014-11-13T09:47:13.00Z,86.36070823,-19.58176771,80.22762256,60.10515582,178.23359085,80.34850847,243,232.64,32,0.047
2014-11-13T14:18:24Z,urn:nasa:pds:maven_acc:profile:pro_acc_p00244,2014-11-13T14:13:24.00Z,2014-11-13T14:23:24.00Z,19.18516202,-19.61451453,12.65567617,60.20838485,178.10762991,80.50411636,244,232.64,32,0.047
2014-11-13T18:54:38Z,urn:nasa:pds:maven_acc:profile:pro_acc_p00245,2014-11-13T18:49:38.00Z,2014-11-13T18:59:38.00Z,-48.00248032,-19.64718713,-54.98714473,60.35948988,179.06107626,80.71136122,245,232.77,32,0.047
2014-11-13T23:30:51Z,urn:nasa:pds:maven_acc:profile:pro_acc_p00246,2014-11-13T23:25:51.00Z,2014-11-13T23:35:51.00Z,-115.18600368,-19.67977736,-122.60237667,60.51526003,178.0854006,80.92310485,246,232.89,32,0.047
2014-11-14T04:07:03Z,urn:nasa:pds:maven_acc:profile:pro_acc_p00247,2014-11-14T04:02:03.00Z,2014-11-14T04:12:03.00Z,177.63459184,-19.71228499,169.91115517,60.5607061,178.86181579,81.01942313,247,233.08,32,0.047
2014-11-14T08:43:16Z,urn:nasa:pds:maven_acc:profile:pro_acc_p00248,2014-11-14T08:38:16.00Z,2014-11-14T08:48:16.00Z,110.45119857,-19.74471371,102.21216241,60.74499307,178.72603621,81.26669733,248,233.08,32,0.047
2014-11-14T13:19:28Z,urn:nasa:pds:maven_acc:profile:pro_acc_p00249,2014-11-14T13:14:28.00Z,2014-11-14T13:24:28.00Z,43.27192399,-19.77705937,34.74751745,60.80199795,177.91899112,81.37449562,249,233.27,32,0.047
2014-11-14T17:55:39Z,urn:nasa:pds:maven_acc:profile:pro_acc_p00250,2014-11-14T17:50:39.00Z,2014-11-14T18:00:39.00Z,-23.90323201,-19.80932173,-32.93010109,60.96339579,179.22157052,81.60077854,250,233.4,32,0.047
2014-11-14T22:31:53Z,urn:nasa:pds:maven_acc:profile:pro_acc_p00251,2014-11-14T22:26:53.00Z,2014-11-14T22:36:53.00Z,-91.09048461,-19.84150835,-100.53098637,61.09404754,178.77618524,81.79171954,251,233.52,32,0.047
2014-11-15T03:08:02Z,urn:nasa:pds:maven_acc:profile:pro_acc_p00252,2014-11-15T03:03:02.00Z,2014-11-15T03:13:02.00Z,-158.25740374,-19.87360345,-168.07912627,61.21390481,178.54297779,81.97051821,252,233.71,32,0.047
2014-11-15T07:44:16Z,urn:nasa:pds:maven_acc:profile:pro_acc_p00253,2014-11-15T07:39:16.00Z,2014-11-15T07:49:16.00Z,134.5554728,-19.90562616,124.26972712,61.3139256,179.10268496,82.13732116,253,233.71,32,0.047
2014-11-15T12:20:28Z,urn:nasa:pds:maven_acc:profile:pro_acc_p00254,2014-11-15T12:15:28.00Z,2014-11-15T12:25:28.00Z,67.3765213,-19.93756272,56.72230539,61.44528598,178.34032707,82.3281084,254,233.9,32,0.047
2014-11-15T16:56:38Z,urn:nasa:pds:maven_acc:profile:pro_acc_p00255,2014-11-15T16:51:38.00Z,2014-11-15T17:01:38.00Z,0.20574164,-19.9694129,-10.89757827,61.55411079,179.1661972,82.50444802,255,234.03,32,0.047
2014-11-15T21:32:52Z,urn:nasa:pds:maven_acc:profile:pro_acc_p00256,2014-11-15T21:27:52.00Z,2014-11-15T21:37:52.00Z,-66.98118884,-20.00118799,-78.53293848,61.69554698,179.43974911,82.71369006,256,234.15,32,0.047
2014-11-16T02:09:02Z,urn:nasa:pds:maven_acc:profile:pro_acc_p00257,2014-11-16T02:04:02.00Z,2014-11-16T02:14:02.00Z,-134.15184018,-20.03287241,-146.09568028,61.81921123,178.53608325,82.90146786,257,234.15,32,0.047
2014-11-16T06:45:15Z,urn:nasa:pds:maven_acc:profile:pro_acc_p00258,2014-11-16T06:40:15.00Z,2014-11-16T06:50:15.00Z,158.66541124,-20.06447932,146.3513116,61.86186279,179.69971005,83.0091163,258,234.34,32,0.047
2014-11-16T15:57:37Z,urn:nasa:pds:maven_acc:profile:pro_acc_p00260,2014-11-16T15:52:37.00Z,2014-11-16T16:02:37.00Z,24.31632067,-20.12743487,11.17730587,62.09794265,179.01673354,83.38156956,260,234.66,32,0.047
2014-11-18T18:35:37Z,urn:nasa:pds:maven_acc:profile:pro_acc_p00271,2014-11-18T18:30:37.00Z,2014-11-18T18:40:37.00Z,5.40490565,-20.46763665,-12.54301044,63.38865321,180.04679724,85.51172638,271,235.92,32,0.047
2014-11-18T23:11:50Z,urn:nasa:pds:maven_acc:profile:pro_acc_p00272,2014-11-18T23:06:50.00Z,2014-11-18T23:16:50.00Z,-61.7769584,-20.49805354,-80.19337887,63.52221033,180.33860576,85.72963,272,236.05,32,0.047
2014-11-22T00:41:00Z,urn:nasa:pds:maven_acc:profile:pro_acc_p00288,2014-11-22T00:36:00.00Z,2014-11-22T00:46:00.00Z,-54.1732534,-20.97168995,-79.95743217,65.32628656,162.24630924,88.98183681,288,237.94,32,0.047
2014-11-22T05:16:30Z,urn:nasa:pds:maven_acc:profile:pro_acc_p00289,2014-11-22T05:11:30.00Z,2014-11-22T05:21:30.00Z,-121.17977244,-21.00052948,-147.41504184,65.44584094,161.21149362,89.19478096,289,238.13,32,0.047
2014-11-22T09:52:02Z,urn:nasa:pds:maven_acc:profile:pro_acc_p00290,2014-11-22T09:47:02.00Z,2014-11-22T09:57:02.00Z,171.80566095,-21.02928235,145.17021435,65.48743976,162.39761235,89.32913211,290,238.32,32,0.047
2014-11-22T14:27:33Z,urn:nasa:pds:maven_acc:profile:pro_acc_p00291,2014-11-22T14:22:33.00Z,2014-11-22T14:32:33.00Z,104.79520752,-21.05794312,77.56845051,65.668929,161.96125869,89.62297354,291,238.32,32,0.047
2014-11-22T19:03:02Z,urn:nasa:pds:maven_acc:profile:pro_acc_p00292,2014-11-22T18:58:02.00Z,2014-11-22T19:08:02.00Z,37.79292072,-21.08650986,10.13000394,65.75259307,161.56639846,89.80253299,292,238.45,32,0.047
2014-11-22T23:38:34Z,urn:nasa:pds:maven_acc:profile:pro_acc_p00293,2014-11-22T23:33:34.00Z,2014-11-22T23:43:34.00Z,-29.22146769,-21.11499098,-57.34214011,65.83886176,162.63067721,89.98875901,293,238.57,32,0.047
2014-11-23T04:14:05Z,urn:nasa:pds:maven_acc:profile:pro_acc_p00294,2014-11-23T04:09:05.00Z,2014-11-23T04:19:05.00Z,-96.23174339,-21.14337935,-124.86410831,65.97205736,161.70525961,90.22691265,294,238.76,32,0.047
2014-11-23T08:49:33Z,urn:nasa:pds:maven_acc:profile:pro_acc_p00295,2014-11-23T08:44:33.00Z,2014-11-23T08:54:33.00Z,-163.22979932,-21.17167135,167.73768852,66.04858792,162.18934128,90.39508558,295,238.76,32,0.047
2014-11-23T13:25:04Z,urn:nasa:pds:maven_acc:profile:pro_acc_p00296,2014-11-23T13:20:04.00Z,2014-11-23T13:30:04.00Z,129.7600427,-21.19987704,100.17391259,66.16189891,162.20452048,90.62423516,296,238.95,32,0.047
2014-11-23T18:00:32Z,urn:nasa:pds:maven_acc:profile:pro_acc_p00297,2014-11-23T17:55:32.00Z,2014-11-23T18:05:32.00Z,62.76210416,-21.22798597,32.73113615,66.28044676,161.32557594,90.83845713,297,239.08,32,0.047
2014-11-23T22:36:00Z,urn:nasa:pds:maven_acc:profile:pro_acc_p00298,2014-11-23T22:30:60.00Z,2014-11-23T22:40:60.00Z,-4.23577593,-21.25600303,-34.75619618,66.35991315,162.58546986,91.02708647,298,239.2,32,0.047
2014-11-24T03:11:30Z,urn:nasa:pds:maven_acc:profile:pro_acc_p00299,2014-11-24T03:06:30.00Z,2014-11-24T03:16:30.00Z,-71.2417049,-21.28393139,-102.33995628,66.50923,162.32063634,91.29390234,299,239.39,32,0.047
2014-11-24T07:46:56Z,urn:nasa:pds:maven_acc:profile:pro_acc_p00300,2014-11-24T07:41:56.00Z,2014-11-24T07:51:56.00Z,-138.23136136,-21.31176071,-169.74097978,66.59976964,161.80778293,91.47834107,300,239.39,32,0.047
2014-11-24T12:22:26Z,urn:nasa:pds:maven_acc:profile:pro_acc_p00301,2014-11-24T12:17:26.00Z,2014-11-24T12:27:26.00Z,154.7628258,-21.33950425,122.71915364,66.67232593,162.77436005,91.67119783,301,239.58,32,0.047
2014-11-24T16:57:54Z,urn:nasa:pds:maven_acc:profile:pro_acc_p00302,2014-11-24T16:52:54.00Z,2014-11-24T17:02:54.00Z,87.76517796,-21.3671517,55.19833848,66.82580267,162.09404791,91.93221151,302,239.71,32,0.047
2014-11-24T21:33:20Z,urn:nasa:pds:maven_acc:profile:pro_acc_p00303,2014-11-24T21:28:20.00Z,2014-11-24T21:38:20.00Z,20.77569493,-21.39470289,-12.28070167,66.89804811,162.55442415,92.1172696,303,239.84,32,0.047
2014-11-25T02:08:50Z,urn:nasa:pds:maven_acc:profile:pro_acc_p00304,2014-11-25T02:03:50.00Z,2014-11-25T02:13:50.00Z,-46.22994493,-21.42216758,-79.82318936,67.01500539,163.05667464,92.35036354,304,239.84,32,0.047
2014-11-25T06:44:16Z,urn:nasa:pds:maven_acc:profile:pro_acc_p00305,2014-11-25T06:39:16.00Z,2014-11-25T06:49:16.00Z,-113.21931316,-21.44953228,-147.39964604,67.168747,161.9572024,92.62502413,305,240.03,32,0.047
2014-11-25T11:19:44Z,urn:nasa:pds:maven_acc:profile:pro_acc_p00306,2014-11-25T11:14:44.00Z,2014-11-25T11:24:44.00Z,179.78326861,-21.47680672,145.1911117,67.20885221,163.13255595,92.76876109,306,240.22,32,0.047
2014-11-25T15:55:12Z,urn:nasa:pds:maven_acc:profile:pro_acc_p00307,2014-11-25T15:50:12.00Z,2014-11-25T16:00:12.00Z,112.78590737,-21.50398737,77.58599046,67.36080935,162.74384697,93.0467355,307,240.34,32,0.047
2014-11-25T20:30:38Z,urn:nasa:pds:maven_acc:profile:pro_acc_p00308,2014-11-25T20:25:38.00Z,2014-11-25T20:35:38.00Z,45.79671007,-21.53107074,10.2073912,67.41626248,162.19595065,93.19956088,308,240.34,32,0.047
2014-11-26T01:06:05Z,urn:nasa:pds:maven_acc:profile:pro_acc_p00309,2014-11-26T01:01:05.00Z,2014-11-26T01:11:05.00Z,-21.19648415,-21.55806156,-57.42235061,67.54991486,163.3447064,93.46882828,309,240.47,32,0.047
2014-11-26T05:41:33Z,urn:nasa:pds:maven_acc:profile:pro_acc_p00310,2014-11-26T05:36:33.00Z,2014-11-26T05:46:33.00Z,-88.19367547,-21.5849596,-124.93036597,67.65867951,162.48356452,93.69168207,310,240.66,32,0.047
2014-11-26T10:16:57Z,urn:nasa:pds:maven_acc:profile:pro_acc_p00311,2014-11-26T10:11:57.00Z,2014-11-26T10:21:57.00Z,-155.17459627,-21.61175652,167.63209302,67.74631081,162.79005992,93.88597629,311,240.85,32,0.047
2014-11-26T14:52:25Z,urn:nasa:pds:maven_acc:profile:pro_acc_p00312,2014-11-26T14:47:25.00Z,2014-11-26T14:57:25.00Z,137.82832483,-21.63846511,100.08360492,67.82920531,162.91495098,94.09675591,312,240.85,32,0.047
2014-11-26T19:27:50Z,urn:nasa:pds:maven_acc:profile:pro_acc_p00313,2014-11-26T19:22:50.00Z,2014-11-26T19:32:50.00Z,70.84346251,-21.66507382,32.62525669,67.94377305,162.02748832,94.3170349,313,240.98,32,0.047
2014-11-27T00:03:14Z,urn:nasa:pds:maven_acc:profile:pro_acc_p00314,2014-11-26T23:58:14.00Z,2014-11-27T00:08:14.00Z,3.86270948,-21.69158572,-34.93984074,68.0366875,163.23967519,94.54373351,314,241.1,32,0.047
2014-11-27T04:38:42Z,urn:nasa:pds:maven_acc:profile:pro_acc_p00315,2014-11-27T04:33:42.00Z,2014-11-27T04:43:42.00Z,-63.13420214,-21.71800857,-102.43346437,68.1285621,163.06921737,94.75104384,315,241.29,32,0.047
2014-11-27T09:14:04Z,urn:nasa:pds:maven_acc:profile:pro_acc_p00316,2014-11-27T09:09:04.00Z,2014-11-27T09:19:04.00Z,-130.10673714,-21.74432622,-169.99743341,68.26791868,162.43614943,95.01705558,316,241.48,32,0.047
2014-11-29T02:32:48Z,urn:nasa:pds:maven_acc:profile:pro_acc_p00325,2014-11-29T02:27:48.00Z,2014-11-29T02:37:48.00Z,-12.96248213,-21.97688918,-57.69958632,69.07495086,163.95855164,96.96117015,325,242.37,32,0.047
2014-11-29T07:08:13Z,urn:nasa:pds:maven_acc:profile:pro_acc_p00326,2014-11-29T07:03:13.00Z,2014-11-29T07:13:13.00Z,-79.94663409,-22.00224403,-125.31210235,69.19869919,163.18387651,97.22427041,326,242.56,32,0.047
2014-11-29T11:43:34Z,urn:nasa:pds:maven_acc:profile:pro_acc_p00327,2014-11-29T11:38:34.00Z,2014-11-29T11:48:34.00Z,-146.91451874,-22.02749492,167.20512558,69.29046297,163.31144741,97.43712347,327,242.75,32,0.047
2014-11-29T16:18:59Z,urn:nasa:pds:maven_acc:profile:pro_acc_p00328,2014-11-29T16:13:59.00Z,2014-11-29T16:23:59.00Z,146.10143572,-22.05265386,99.56402035,69.37845528,163.58032056,97.68074386,328,242.88,32,0.047
2014-11-29T20:54:22Z,urn:nasa:pds:maven_acc:profile:pro_acc_p00329,2014-11-29T20:49:22.00Z,2014-11-29T20:59:22.00Z,79.12555008,-22.07771152,32.11129622,69.47845986,162.7105032,97.89063759,329,242.88,32,0.047
2014-11-30T01:29:43Z,urn:nasa:pds:maven_acc:profile:pro_acc_p00330,2014-11-30T01:24:43.00Z,2014-11-30T01:34:43.00Z,12.15782413,-22.10266772,-35.52367272,69.57006704,163.83130124,98.13963496,330,243,32,0.047
2014-11-30T06:05:09Z,urn:nasa:pds:maven_acc:profile:pro_acc_p00331,2014-11-30T06:00:09.00Z,2014-11-30T06:10:09.00Z,-54.83011677,-22.12753282,-102.99783227,69.64052543,163.77124239,98.33047186,331,243.19,32,0.047
2014-11-30T10:40:29Z,urn:nasa:pds:maven_acc:profile:pro_acc_p00332,2014-11-30T10:35:29.00Z,2014-11-30T10:45:29.00Z,-121.79368444,-22.15229008,-170.58624166,69.7634901,163.00255905,98.59176442,332,243.38,32,0.047
2014-11-30T15:15:53Z,urn:nasa:pds:maven_acc:profile:pro_acc_p00333,2014-11-30T15:10:53.00Z,2014-11-30T15:20:53.00Z,171.22658605,-22.17695431,121.88368189,69.8080136,164.17881761,98.77996694,333,243.51,32,0.047
2014-11-30T19:51:16Z,urn:nasa:pds:maven_acc:profile:pro_acc_p00334,2014-11-30T19:46:16.00Z,2014-11-30T19:56:16.00Z,104.25096191,-22.20151782,54.26634266,69.94315793,163.60014755,99.05357889,334,243.51,32,0.047
2014-12-01T05:02:02Z,urn:nasa:pds:maven_acc:profile:pro_acc_p00336,2014-12-01T04:57:02.00Z,2014-12-01T05:07:02.00Z,-29.7001315,-22.25034642,-80.78281648,70.07668823,164.39180064,99.46101456,336,243.83,32,0.047
2014-12-01T23:23:31Z,urn:nasa:pds:maven_acc:profile:pro_acc_p00340,2014-12-01T23:18:31.00Z,2014-12-01T23:28:31.00Z,62.41045565,-22.34680014,9.00113344,70.42148896,163.22069427,100.3607341,340,244.27,32,0.047